sat.trackr.live / text

‹ back to catalog

STARLINK-35932

NORAD 66526 · 2025-265L

PAYLOAD ACTIVE UNKNOWN

§ Identity

Operator
Country
US
Launch date
2025-11-19
Launch site
AFETR
Launch vehicle
Mass (kg)
RCS (m²)

Purposes: comms

External: N2YO · Heavens-Above · Gunter

§ Orbital elements

Epoch: 2026-05-25T04:29:43.730016Z

Period
94.27 min
Inclination
42.9982°
Eccentricity
0.0000575
Mean motion
15.27590602 rev/d
Perigee alt
482.6 km
Apogee alt
483.4 km
Semi-major
6,861.2 km
B*
4.7734e-4
RAAN
205.8403°
Arg perigee
266.2910°
Mean anomaly
93.7876°
Rev number
2,881

§ Raw data

STARLINK-359321 66526U 25265L   26145.18731169  .00012901  00000+0  47734-3 0  99992 66526  42.9982 205.8403 0000575 266.2910  93.7876 15.27590602 28812

JSON: /api/v1/satellites/66526 · /tle

For live sub-satellite position, see the globe view (requires WebGL).

§ Visibility from observer

Set your observer location to see the next 7 days of passes ≥ 10°. The values pass through the URL so the page stays shareable.

No JS? Fill the form by hand. The geolocation button needs JavaScript.